Emporia, Virginia, United States (23847)
Lat: 36.69N, Lon: 77.54W
Wx Zone: VAZ087
Local Info
Past Weather Observations for Thursday, May 26, 2016

NOTE: This archive is for the closest National Weather Service station to Emporia. Information may differ from the station used for current weather conditions.

Click here for Long-term Archive

Time Weather Temperature Dewpoint Humidity Pressure Winds Precip Visibility
23:55
Clear
70°F / 21°C 63°F / 17°C 78% 30.12 in
(1020 mb)
SE 3.5 mph
(SE 6 kph)
-
23:35
Clear
72°F / 22°C 63°F / 17°C 73% 30.12 in
(1020 mb)
SE 3.5 mph
(SE 6 kph)
-
23:15
Clear
72°F / 22°C 63°F / 17°C 73% 30.09 in
(1019 mb)
SE 5.8 mph
(SE 9 kph)
-
22:55
Clear
72°F / 22°C 64°F / 18°C 78% 30.12 in
(1020 mb)
SE 8.1 mph
(SE 13 kph)
-
22:35
Clear
72°F / 22°C 64°F / 18°C 78% 30.12 in
(1020 mb)
SE 8.1 mph
(SE 13 kph)
-
22:15
Clear
73°F / 23°C 64°F / 18°C 74% 30.12 in
(1020 mb)
SE 5.8 mph
(SE 9 kph)
-
21:55
Clear
73°F / 23°C 64°F / 18°C 74% 30.12 in
(1020 mb)
SE 6.9 mph
(SE 11 kph)
-
21:35
Partly Cloudy
73°F / 23°C 64°F / 18°C 74% 30.12 in
(1020 mb)
SE 8.1 mph
(SE 13 kph)
-
21:15
Fair
70°F / 21°C 66°F / 19°C 88% 30.12 in
(1020 mb)
Calm -
20:55
Overcast
70°F / 21°C 68°F / 20°C 94% 30.09 in
(1019 mb)
Calm -
20:35
Mostly Cloudy
68°F / 20°C 66°F / 19°C 94% 30.09 in
(1019 mb)
Calm -
20:15
Fair
68°F / 20°C 64°F / 18°C 88% 30.09 in
(1019 mb)
Calm -
19:55
Fair
70°F / 21°C 66°F / 19°C 88% 30.09 in
(1019 mb)
Calm -
19:35
Fair
72°F / 22°C 68°F / 20°C 88% 30.09 in
(1019 mb)
Calm -
19:15
Clear
73°F / 23°C 66°F / 19°C 78% 30.09 in
(1019 mb)
Calm -
18:55
Clear
81°F / 27°C 68°F / 20°C 66% 30.06 in
(1018 mb)
Calm -
18:35
Clear
82°F / 28°C 63°F / 17°C 51% 30.06 in
(1018 mb)
Calm -
18:15
Clear
82°F / 28°C 63°F / 17°C 51% 30.06 in
(1018 mb)
Calm -
17:55
Clear
84°F / 29°C 61°F / 16°C 45% 30.06 in
(1018 mb)
SSE 3.5 mph
(SSE 6 kph)
-
17:35
Clear
86°F / 30°C 63°F / 17°C 46% 30.06 in
(1018 mb)
Calm -
17:15
Clear
86°F / 30°C 63°F / 17°C 46% 30.06 in
(1018 mb)
S 5.8 mph
(S 9 kph)
-
16:55
Clear
86°F / 30°C 61°F / 16°C 43% 30.06 in
(1018 mb)
S 3.5 mph
(S 6 kph)
-
16:35
Partly Cloudy
86°F / 30°C 61°F / 16°C 43% 30.09 in
(1019 mb)
S 5.8 mph
(S 9 kph)
-
16:15
Partly Cloudy
88°F / 31°C 63°F / 17°C 43% 30.09 in
(1019 mb)
S 6.9 mph
(S 11 kph)
-
15:55
Clear
86°F / 30°C 61°F / 16°C 43% 30.09 in
(1019 mb)
SSE 4.6 mph
(SSE 7 kph)
-
15:35
Clear
88°F / 31°C 61°F / 16°C 40% 30.09 in
(1019 mb)
SW 8.1 mph
(SW 13 kph)
-
15:15
Clear
88°F / 31°C 61°F / 16°C 40% 30.09 in
(1019 mb)
SSE 4.6 mph
(SSE 7 kph)
-
14:55
Clear
88°F / 31°C 61°F / 16°C 40% 30.09 in
(1019 mb)
SSE 9.2 mph
(SSE 15 kph)
-
14:35
Clear
88°F / 31°C 61°F / 16°C 40% 30.12 in
(1020 mb)
SSE 9.2 mph
(SSE 15 kph)
-
14:15
Clear
86°F / 30°C 61°F / 16°C 43% 30.12 in
(1020 mb)
S 8.1 mph
(S 13 kph)
-
13:55
Clear
88°F / 31°C 61°F / 16°C 40% 30.12 in
(1020 mb)
S 6.9 mph
(S 11 kph)
-
13:35
Clear
86°F / 30°C 61°F / 16°C 43% 30.12 in
(1020 mb)
SSE 9.2 mph
(SSE 15 kph)
-
13:15
Partly Cloudy
86°F / 30°C 61°F / 16°C 43% 30.12 in
(1020 mb)
S 6.9 mph
(S 11 kph)
-
12:55
Partly Cloudy
86°F / 30°C 61°F / 16°C 43% 30.12 in
(1020 mb)
SSE 9.2 mph
(SSE 15 kph)
-
12:35
Partly Cloudy
86°F / 30°C 61°F / 16°C 43% 30.12 in
(1020 mb)
S 5.8 mph
(S 9 kph)
-
12:15
Partly Cloudy
86°F / 30°C 61°F / 16°C 43% 30.12 in
(1020 mb)
S 8.1 mph
(S 13 kph)
-
11:55
Partly Cloudy
86°F / 30°C 63°F / 17°C 46% 30.15 in
(1021 mb)
SSE 6.9 mph
(SSE 11 kph)
-
11:35
Clear
84°F / 29°C 63°F / 17°C 48% 30.15 in
(1021 mb)
S 6.9 mph
(S 11 kph)
-
11:15
Clear
84°F / 29°C 63°F / 17°C 48% 30.15 in
(1021 mb)
S 4.6 mph
(S 7 kph)
-
10:55
Clear
82°F / 28°C 63°F / 17°C 51% 30.15 in
(1021 mb)
S 6.9 mph
(S 11 kph)
-
10:35
Clear
82°F / 28°C 64°F / 18°C 55% 30.18 in
(1022 mb)
SSE 6.9 mph
(SSE 11 kph)
-
10:15
Clear
82°F / 28°C 64°F / 18°C 55% 30.15 in
(1021 mb)
SSE 5.8 mph
(SSE 9 kph)
-
09:55
Clear
81°F / 27°C 64°F / 18°C 58% 30.15 in
(1021 mb)
SSE 4.6 mph
(SSE 7 kph)
-
09:15
Clear
77°F / 25°C 64°F / 18°C 65% 30.18 in
(1022 mb)
S 5.8 mph
(S 9 kph)
-
08:55
Clear
77°F / 25°C 64°F / 18°C 65% 30.18 in
(1022 mb)
S 4.6 mph
(S 7 kph)
-
08:35
Clear
73°F / 23°C 64°F / 18°C 74% 30.18 in
(1022 mb)
SSE 4.6 mph
(SSE 7 kph)
-
08:15
Clear
72°F / 22°C 64°F / 18°C 78% 30.18 in
(1022 mb)
S 4.6 mph
(S 7 kph)
-
07:55
Clear
70°F / 21°C 64°F / 18°C 83% 30.21 in
(1023 mb)
SW 3.5 mph
(SW 6 kph)
-
07:35
Clear
68°F / 20°C 63°F / 17°C 83% 30.21 in
(1023 mb)
S 3.5 mph
(S 6 kph)
-
07:15
Clear
66°F / 19°C 63°F / 17°C 88% 30.18 in
(1022 mb)
S 3.5 mph
(S 6 kph)
- 10SM
06:55
Clear
64°F / 18°C 61°F / 16°C 88% 30.18 in
(1022 mb)
SE 3.5 mph
(SE 6 kph)
- 10SM
06:35
Clear
63°F / 17°C 61°F / 16°C 94% 30.18 in
(1022 mb)
Calm - 10SM
06:15
Clear
63°F / 17°C 61°F / 16°C 94% 30.18 in
(1022 mb)
Calm - 7SM
05:55
Clear
61°F / 16°C 61°F / 16°C 100% 30.18 in
(1022 mb)
Calm - 7SM
05:35
Clear
59°F / 15°C 57°F / 14°C 94% 30.18 in
(1022 mb)
Calm - 7SM
05:15
Clear
Fog And Mist
57°F / 14°C 57°F / 14°C 100% 30.18 in
(1022 mb)
Calm - 5SM
04:55
Clear
57°F / 14°C 55°F / 13°C 94% 30.18 in
(1022 mb)
Calm - 10SM
04:35
Clear
57°F / 14°C 57°F / 14°C 100% 30.18 in
(1022 mb)
Calm - 10SM
04:15
Clear
Fog And Mist
57°F / 14°C 57°F / 14°C 100% 30.18 in
(1022 mb)
Calm - 5SM
03:55
Clear
Fog And Mist
59°F / 15°C 57°F / 14°C 94% 30.18 in
(1022 mb)
Calm - 5SM
03:35
Clear
59°F / 15°C 59°F / 15°C 100% 30.15 in
(1021 mb)
Calm - 10SM
03:15
Clear
59°F / 15°C 59°F / 15°C 100% 30.15 in
(1021 mb)
Calm - 10SM
02:55
Fair
59°F / 15°C 59°F / 15°C 100% 30.15 in
(1021 mb)
Calm -
02:35
Fair
59°F / 15°C 59°F / 15°C 100% 30.15 in
(1021 mb)
Calm -
02:15
Fair
59°F / 15°C 59°F / 15°C 100% 30.15 in
(1021 mb)
Calm -
01:55
Clear
61°F / 16°C 59°F / 15°C 94% 30.15 in
(1021 mb)
Calm - 10SM
01:35
Clear
61°F / 16°C 59°F / 15°C 94% 30.15 in
(1021 mb)
SE 3.5 mph
(SE 6 kph)
- 10SM
01:15
Clear
61°F / 16°C 59°F / 15°C 94% 30.15 in
(1021 mb)
SE 3.5 mph
(SE 6 kph)
- 10SM
00:55
Clear
61°F / 16°C 59°F / 15°C 94% 30.15 in
(1021 mb)
Calm - 10SM
00:35
Fair
63°F / 17°C 59°F / 15°C 88% 30.15 in
(1021 mb)
Calm -
00:15
Clear
63°F / 17°C 59°F / 15°C 88% 30.18 in
(1022 mb)
SE 3.5 mph
(SE 6 kph)
- 10SM
Time Weather Temperature Dewpoint Humidity Pressure Winds Precip Visibility


Weather for websites

WeatherForYou.com, LLC is not responsible for any damages or problems caused by this service. Current weather conditions are obtained from the closest station including government and personal stations which may have varying degrees of accuracy. Weather forecasts are derived from the NOAA NDFD. Like all things, this site belongs to Jesus Christ... He just trusts us to maintain it. If you have any questions or comments email webmaster@weatherforyou.com

Copyright © 2016, WeatherForYou.com LLC. All rights reserved.